Location: George Washington National Forest Helicopter Landing Site
(38.6463°N, 79.0851°W)
Time: 19:20:22
(UTC-04:00)

Tiros 1 - Pass Details

Date: 27 August 2019
Orbit: 630 x 664 km, 48.4° (Epoch: 18 October)

Event Time Altitude Azimuth Distance (km) Brightness Sun altitude
Exits shadow 04:05:09 28° 338° (NNW) 1,181 8.6 -27.6°
Maximum altitude 04:06:47 38° 21° (NNE) 979 8.4 -27.4°
Drops below altitude 10° 04:11:08 10° 90° (E) 2,031 10.3 -26.7°
Sets 04:13:37 0° 98° (E) 2,945 11.1 -26.4°
